EHI
0 0 0 0 0 0 0 0 0 0 0 0 0 0 0 0 0 0 0 0 0 0 0 0 0 0 0 0 0 0 0 0 0 0 0 0 0 0 0 0 0 0 0 0
0 0 0 0 0 0 0 0 0 0 0 0 0 0 0 0 0 0 0 0 0 0 0 0 0 0 0 0 0 0 0 0 0 0 0 0 0 0 0 0 0 0 0 0
0 0 0 0 0 0 0 0 0 0 0 0 0 0 0 0 0 0 0 0 0 0 0 0 0 0 0 0 0 0 0 0 0 0 0 0 0 0 0 0 0 0 0 0
0 0 0 0 0 0 0 0 0 0 0 0 0 0 0 0 0 0 0 0 0 0 0 0 0 0 0 0 0 0 0 0 0 0 0 0 0 0 0 0 0 0 0 0
0 0 0 0 0 0 0 0 0 0 0 0 0 0 0 0 0 0 0 0 0 0 0 0 0 0 0 0 0 0 0 0 0 0 0 0 0 0 0 0 0 0 0 0
0 0 0 0 0 0 0 0 0 0 0 0 0 0 0 0 0 0 0 0 0 0 0 0 0 0 0 0 0 0 0 0 0 0 0 0 0 0 0 0 0 0 0 0
0 0 0 0 0 0 0 0 0 0 0 0 0 0 0 0 0 0 0 0 0 0 0 0 0 0 0 0 0 0 0 0 0 0 0 0 0 0 0 0 0 0 0 0
0 0 0 0 0 0 0 0 0 0 0 0 0 0 0 0 0 0 0 0 0 0 0 0 0 0 0 0 0 0 0 0 0 0 0 0 0 0 0 0 0 0 0 0
0 0 0 0 0 0 0 0 0 0 0 0 0 0 0 0 0 0 0 0 0 0 0 0 0 0 0 0 0 0 0 0 0 0 0 0 0 0 0 0 0 0 0 0
0 0 0 0 0 0 0 0 0 0 0 0 0 0 0 0 0 0 0 0 0 0 0 0 0 0 0 0 0 0 0 0 0 0 0 0 0 0 0 0 0 0 0 0
0 0 0 0 0 0 0 0 0 0 0 0 0 0 0 0 0 0 0 0 0 0 0 0 0 0 0 0 0 0 0 0 0 0 0 0 0 0 0 0 0 0 0 0
0 0 0 0 0 0 0 0 0 0 0 0 0 0 0 0 0 0 0 0 0 0 0 0 0 0 0 0 0 0 0 0 0 0 0 0 0 0 0 0 0 0 0 0
0 0 0 0 0 0 0 0 0 0 0 0 0 0 0 0 0 0 0 0 0 0 0 0 0 0 0 0 0 0 0 0 0 0 0 0 0 0 0 0 0 0 0 0
0 0 0 0 0 0 0 0 0 0 0 0 0 0 0 0 0 0 0 0 0 0 0 0 0 0 0 0 0 0 0 0 0 0 0 0 0 0 0 0 0 0 0 0
0 0 0 0 0 0 0 0 0 0 0 0 0 0 0 0 0 0 0 0 0 0 0 0 0 0 0 0 0 0 0 0 0 0 0 0 0 0 0 0 0 0 0 0
0 0 0 0 0 0 0 0 0 0 0 0 0 0 0 0 0 0 0 0 0 0 0 0 0 0 0 0 0 0 0 0 0 0 0 0 0 0 0 0 0 0 0 0
0 0 0 0 0 0 0 0 0 0 0 0 0 0 0 0 0 0 0 0 0 0 0 0 0 0 0 0 0 0 0 0 0 0 0 0 0 0 0 0 0 0 0 0
0 0 0 0 0 0 0 0 0 0 0 0 0 0 0 0 0 0 0 0 0 0 0 0 0 0 0 0 0 0 0 0 0 0 0 0 0 0 0 0 0 0 0 0
0 0 0 0 0 0 0 0 0 0 0 0 0 0 0 0 0 0 0 0 0 0 0 0 0 0 0 0 0 0 0 0 0 0 0 0 0 0 0 0 0 0 0 0
0 0 0 0 0 0 0 0 0 0 0 0 0 0 0 0 0 0 0 0 0 0 0 0 0 0 0 0 0 0 0 0 0 0 0 0 0 0 0 0 0 0 0 0
0 0 0 0 0 0 0 0 0 0 0 0 0 0 0 0 0 0 0 0 0 0 0 0 0 0 0 0 0 0 0 0 0 0 0 0 0 0 0 0 0 0 0 0
0 0 0 0 0 0 0 0 0 0 0 0 0 0 0 0 0 0 0 0 0 0 0 0 0 0 0 0 0 0 0 0 0 0 0 0 0 0 0 0 0 0 0 0
0 0 0 0 0 0 0 0 0 0 0 0 0 0 0 0 0 0 0 0 0 0 0 0 0 0 0 0 0 0 0 0 0 0 0 0 0 0 0 0 0 0 0 0
0 0 0 0 0 0 0 0 0 0 0 0 0 0 0 0 0 0 0 0 0 0 0 0 0 0 0 0 0 0 0 0 0 0 0 0 0 0 0 0 0 0 0 0
0 0 0 0 0 0 0 0 0 0 0 0 0 0 0 0 0 0 0 0 0 0 0 0 0 0 0 0 0 0 0 0 0 0 0 0 0 0 0 0 0 0 0 0
0 0 0 0 0 0 0 0 0 0 0 0 0 0 0 0 0 0 0 0 0 0 0 0 0 0 0 0 0 0 0 0 0 0 0 0 0 0 0 0 0 0 0 0
0 0 0 0 0 0 0 0 0 0 0 0 0 0 0 0 0 0 0 0 0 0 0 0 0 0 0 0 0 0 0 0 0 0 0 0 0 0 0 0 0 0 0 0
Wind_Speed
8 8 8 10 10 10 12 12 12 12 12 12 8 7 7 7 8 9 10 10 11 11 10 10 10 10 9 9 8 8 8 7 7 7 7 7 7 7 6 6 6 6 6 6
6 6 8 11 12 13 13 13 13 14 14 7 5 5 6 8 8 9 10 11 11 11 11 11 10 10 10 10 9 8 8 8 7 7 7 7 7 7 6 6 6 6 6 6
5 4 7 10 9 10 8 7 8 10 7 4 6 6 7 8 8 9 11 11 11 11 11 11 11 10 10 10 9 8 8 8 7 7 7 7 7 7 7 6 6 6 6 6
4 3 9 2 1 3 6 7 7 6 5 5 7 8 8 7 8 9 10 11 11 11 11 11 10 9 9 9 9 8 8 8 7 7 7 8 7 7 7 6 6 6 6 6
4 6 9 4 3 3 4 6 5 6 6 6 7 8 6 4 6 9 10 11 11 10 11 10 10 9 9 9 8 8 8 8 8 7 8 8 7 7 7 6 6 6 6 6
5 6 8 2 2 0 2 6 2 3 5 5 6 8 6 6 8 10 10 9 10 10 10 9 9 9 9 8 8 8 8 9 8 8 8 8 8 7 7 6 6 6 6 6
8 8 8 1 2 3 5 3 0 3 5 5 7 8 8 9 9 9 10 10 10 10 9 8 9 8 8 9 9 9 9 9 9 8 8 8 7 6 6 6 6 5 5 5
6 8 7 3 4 5 3 3 3 4 5 7 9 9 9 9 10 10 10 10 10 9 8 8 8 8 8 9 9 9 8 9 8 8 7 6 7 6 6 5 5 5 5 5
7 5 2 2 3 3 3 4 4 5 6 7 9 9 10 10 10 10 10 10 9 9 9 8 8 7 8 9 9 9 9 9 8 8 7 7 6 6 6 5 4 4 3 3
6 7 5 4 5 5 4 5 5 6 6 7 9 10 10 9 9 9 10 9 8 9 9 9 9 8 8 9 9 9 9 9 8 7 7 7 5 5 5 4 4 3 3 4
8 6 5 5 5 5 5 5 5 6 6 7 8 9 9 9 9 9 9 8 8 8 9 10 9 9 9 8 8 9 9 8 7 6 6 6 5 5 5 5 5 5 4 4
6 4 4 5 4 4 5 5 6 6 7 7 7 9 9 9 8 8 8 8 8 8 9 10 10 10 9 8 8 8 8 7 6 5 5 5 5 6 5 5 6 7 7 6
5 4 4 5 5 4 5 6 6 6 7 7 7 7 8 8 7 7 8 8 8 9 9 10 10 10 9 9 8 8 8 7 6 5 5 5 5 5 5 5 5 6 6 7
4 3 4 4 4 4 4 5 5 5 6 6 6 6 6 7 7 8 8 8 9 9 9 9 10 10 10 9 8 8 7 7 7 5 5 5 5 5 4 4 5 4 4 6
3 4 4 3 3 3 4 4 4 5 6 6 5 6 6 7 8 8 8 8 8 8 9 9 9 10 9 9 8 8 7 5 5 5 5 5 5 4 4 4 4 4 4 4
3 2 2 3 4 4 4 4 5 6 6 6 6 6 7 7 7 8 8 7 8 9 9 9 10 10 9 9 8 6 5 7 7 5 5 4 4 4 4 4 4 4 4 4
1 2 3 4 5 5 5 5 6 6 6 6 7 7 7 7 7 7 7 7 7 8 9 9 9 10 9 8 7 6 5 6 7 5 4 4 4 4 4 4 4 4 4 4
3 4 4 5 5 5 6 5 5 6 6 6 7 6 6 6 7 8 8 8 8 8 8 8 9 9 8 8 6 5 5 5 4 4 4 4 4 4 4 4 4 5 4 4
2 3 4 4 4 4 5 5 5 5 6 5 6 6 6 6 7 8 8 8 8 9 8 9 12 10 8 8 8 5 5 5 4 4 4 5 5 4 4 4 4 4 4 3
2 3 3 4 3 3 4 5 5 5 5 5 5 6 7 7 7 7 7 7 6 7 8 9 9 8 8 7 8 5 4 4 4 4 4 4 4 4 4 4 4 4 4 4
3 3 3 3 4 4 4 4 4 5 5 5 5 6 7 7 7 6 6 7 7 8 9 10 7 7 6 6 7 5 4 4 4 4 4 4 4 4 4 4 4 4 4 4
3 3 3 3 4 4 4 4 4 5 5 5 5 6 6 7 7 6 5 5 7 10 8 6 6 8 9 8 4 4 4 4 4 4 4 4 4 4 4 4 4 4 4 4
3 3 3 3 4 4 4 4 4 4 5 5 5 6 6 6 5 5 6 5 6 10 8 6 9 12 12 6 4 4 4 4 4 4 4 4 4 4 4 5 4 4 4 4
2 3 3 3 3 3 4 4 4 4 4 5 5 5 5 5 4 4 5 9 11 11 7 9 13 13 10 5 4 4 4 4 4 4 4 4 4 4 4 4 4 4 4 5
2 2 2 2 2 3 4 4 4 4 4 4 5 5 4 4 4 5 6 7 10 10 7 8 12 11 7 5 5 4 4 4 4 4 4 4 4 4 4 4 4 4 4 4
2 2 2 3 3 3 3 3 3 3 4 4 4 4 4 4 5 5 5 6 8 9 7 5 6 7 5 5 5 5 5 5 5 4 4 4 4 4 4 4 6 5 5 5
2 2 2 2 2 2 2 2 3 3 4 4 5 5 5 5 5 5 6 5 5 5 5 5 5 5 5 5 5 5 5 4 4 4 4 4 4 4 4 5 5 5 5 5
Wind_Direction
267 276 268 261 256 242 238 246 257 268 273 284 295 300 304 308 313 317 320 323 322 320 320 321 320 318 317 315 315 313 309 305 305 307 306 301 300 298 294 289 284 282 276 272
266 264 269 267 258 247 246 250 255 268 278 297 313 302 301 309 313 313 316 319 320 319 319 320 320 318 315 313 314 311 307 305 306 306 306 304 300 298 292 288 285 281 277 275
264 294 288 261 240 228 232 240 248 260 278 315 306 302 305 309 308 309 314 315 316 315 315 315 316 315 313 313 313 309 306 305 305 305 303 301 299 297 290 286 283 278 276 275
268 272 248 279 76 237 246 256 247 261 283 292 300 306 297 293 300 309 313 312 313 313 312 312 312 313 314 312 310 310 309 307 307 306 303 302 299 297 292 287 283 280 279 278
234 256 271 268 223 217 241 267 238 254 276 298 317 303 285 294 307 308 309 309 309 309 307 307 309 312 311 311 310 308 306 305 304 301 299 298 296 297 293 287 284 283 281 279
225 249 260 273 109 114 251 260 203 238 272 293 305 294 306 333 316 308 307 308 309 308 306 304 309 311 309 309 309 308 308 305 302 299 296 293 292 293 291 285 281 281 278 277
233 248 266 295 130 179 241 302 87 253 271 279 277 286 308 311 306 306 306 308 310 307 306 307 310 310 307 307 308 310 308 305 303 299 296 293 292 290 290 284 281 278 279 280
213 231 253 132 162 219 287 346 297 284 284 282 284 293 298 300 302 306 307 308 310 307 307 310 310 309 304 305 310 310 306 304 303 302 300 295 293 292 290 282 280 281 282 285
215 240 333 180 228 278 306 293 297 291 291 288 288 292 297 299 301 303 304 306 307 307 308 310 312 308 302 305 310 309 306 304 304 304 300 295 292 291 290 281 275 278 280 287
250 260 271 263 268 284 286 284 292 292 290 289 289 294 295 297 300 302 304 305 308 309 309 310 313 309 301 304 307 304 302 302 302 301 300 297 292 287 284 276 273 277 284 288
251 270 283 263 264 274 278 284 291 292 290 290 291 293 295 296 298 299 300 303 306 306 305 308 311 309 308 307 305 302 301 301 302 302 301 300 296 294 288 277 276 282 282 282
249 255 255 274 295 291 279 281 288 291 293 295 292 293 296 295 295 297 300 305 305 306 306 308 310 309 310 310 305 301 301 301 301 302 301 300 300 300 295 287 292 291 290 290
260 280 274 278 290 294 284 287 290 287 289 294 296 295 296 297 300 303 305 307 307 307 307 307 309 309 312 312 306 300 298 299 299 299 299 300 299 299 303 307 300 293 292 295
250 257 267 272 284 292 291 295 297 296 294 294 296 299 300 301 304 307 308 309 308 306 306 308 309 310 314 313 307 300 297 297 296 295 296 295 295 296 295 299 304 304 302 298
253 253 259 282 290 298 303 303 302 302 304 306 306 304 306 306 306 307 310 311 310 308 308 311 312 312 316 313 306 300 296 296 296 295 294 293 293 294 292 291 292 298 305 306
281 269 261 273 285 296 302 301 298 300 307 308 309 308 307 304 304 306 311 315 313 311 312 313 311 312 315 311 307 301 295 296 298 296 293 293 294 292 291 291 292 292 294 301
235 268 280 288 291 296 296 294 292 295 300 302 304 307 308 308 309 310 314 317 310 304 306 307 309 313 314 312 309 303 302 299 297 293 291 291 291 290 290 289 288 286 288 295
255 266 270 274 279 288 296 298 296 298 298 300 306 306 307 308 308 311 315 318 315 312 313 315 315 315 314 314 311 305 303 300 295 291 292 292 292 289 288 287 288 288 290 293
282 280 288 287 285 287 292 297 299 300 301 304 304 302 302 302 303 307 313 316 316 316 321 324 322 321 316 318 316 306 303 301 300 297 294 295 295 291 289 289 290 293 294 291
298 298 300 301 303 297 296 303 305 303 304 304 303 303 305 307 309 311 311 306 303 306 312 316 317 316 316 317 319 310 306 304 305 307 307 302 298 298 297 296 295 295 295 294
297 304 307 310 309 305 301 303 303 304 308 306 300 301 303 308 311 311 310 310 316 318 317 319 320 317 316 319 317 312 311 311 310 310 308 305 303 301 299 298 297 297 298 298
290 295 300 303 302 305 308 305 302 303 308 309 305 303 306 309 313 309 299 297 310 322 322 318 318 320 323 322 319 320 317 314 310 308 306 305 304 304 304 305 301 300 298 297
279 284 290 295 296 301 307 307 305 305 307 309 309 308 308 308 311 311 313 318 318 322 322 319 324 327 331 334 330 326 321 316 311 308 305 303 301 300 301 302 301 300 299 299
284 290 293 298 297 300 309 316 314 309 304 303 303 302 304 307 307 301 300 313 323 324 322 325 331 334 340 340 330 323 318 315 312 309 306 302 300 299 298 299 299 300 300 301
281 284 284 290 295 298 304 310 313 314 315 316 319 320 313 305 304 312 314 316 322 326 323 328 334 339 340 329 324 319 315 310 307 305 302 302 301 300 298 298 298 298 298 297
282 286 286 283 286 293 300 304 308 316 318 319 322 324 323 318 312 312 315 318 321 325 327 326 329 331 329 326 323 319 315 313 314 311 304 299 297 296 295 297 297 294 293 292
289 291 294 299 302 300 297 297 302 311 316 316 314 320 325 325 323 324 324 324 326 327 326 326 327 327 326 325 324 323 321 319 316 313 309 303 299 296 296 294 293 292 291 289